Time,TemperatureF,DewpointF,PressureIn,WindDirection,WindDirectionDegrees,WindSpeedMPH,WindSpeedGustMPH,Humidity,HourlyPrecipIn,Conditions,Clouds,dailyrainin,SoftwareType,DateUTC
2013-05-15 00:04:00,53.6,45.9,29.88,NNW,343,3.0,7.2,75,0.00,,,-99.99,FreeWX-Wi 1.01,2013-05-15 07:04:00,
2013-05-15 00:14:00,53.4,46.0,29.88,East,81,2.0,8.1,76,0.00,,,-99.99,FreeWX-Wi 1.01,2013-05-15 07:14:00,
2013-05-15 00:24:00,53.2,46.2,29.88,SE,126,3.0,7.2,77,0.00,,,-99.99,FreeWX-Wi 1.01,2013-05-15 07:24:00,
2013-05-15 00:34:00,53.2,46.2,29.88,NW,319,3.0,10.1,77,0.00,,,-99.99,FreeWX-Wi 1.01,2013-05-15 07:34:00,
2013-05-15 00:44:00,53.1,46.0,29.88,NW,319,3.0,8.7,77,0.00,,,-99.99,FreeWX-Wi 1.01,2013-05-15 07:44:00,
2013-05-15 00:54:00,53.1,46.0,29.88,NW,306,3.0,13.2,77,0.00,,,-99.99,FreeWX-Wi 1.01,2013-05-15 07:54:00,
2013-05-15 01:04:00,52.9,45.9,29.88,WNW,294,3.0,7.6,77,0.00,,,-99.99,FreeWX-Wi 1.01,2013-05-15 08:04:00,
2013-05-15 01:14:00,52.9,46.2,29.88,NNE,12,3.0,8.1,78,0.00,,,-99.99,FreeWX-Wi 1.01,2013-05-15 08:14:00,
2013-05-15 01:24:00,52.9,46.6,29.88,North,8,3.0,8.3,79,0.00,,,-99.99,FreeWX-Wi 1.01,2013-05-15 08:24:00,
2013-05-15 01:34:00,52.7,46.4,29.88,NE,51,3.0,5.8,79,0.00,,,-99.99,FreeWX-Wi 1.01,2013-05-15 08:34:00,
2013-05-15 01:44:00,52.7,46.4,29.88,ENE,57,3.0,7.6,79,0.00,,,-99.99,FreeWX-Wi 1.01,2013-05-15 08:44:00,
2013-05-15 01:54:00,52.5,46.6,29.88,NE,50,3.0,8.3,80,0.00,,,-99.99,FreeWX-Wi 1.01,2013-05-15 08:54:00,
2013-05-15 02:04:00,52.5,46.6,29.88,North,355,3.0,8.3,80,0.00,,,-99.99,FreeWX-Wi 1.01,2013-05-15 09:04:00,
2013-05-15 02:14:00,52.3,46.4,29.88,NNW,328,3.0,11.0,80,0.00,,,-99.99,FreeWX-Wi 1.01,2013-05-15 09:14:00,
2013-05-15 02:24:00,52.2,46.2,29.88,NW,325,3.0,6.3,80,0.00,,,-99.99,FreeWX-Wi 1.01,2013-05-15 09:24:00,
2013-05-15 02:34:00,52.2,46.2,29.88,North,359,3.0,5.8,80,0.00,,,-99.99,FreeWX-Wi 1.01,2013-05-15 09:34:00,
2013-05-15 02:44:00,52.2,46.2,29.88,North,1,3.0,8.7,80,0.00,,,-99.99,FreeWX-Wi 1.01,2013-05-15 09:44:00,
2013-05-15 02:54:00,52.0,45.7,29.88,NNW,346,3.0,8.7,79,0.00,,,-99.99,FreeWX-Wi 1.01,2013-05-15 09:54:00,
2013-05-15 03:04:00,52.0,45.7,29.88,NNW,342,4.0,8.3,79,0.00,,,-99.99,FreeWX-Wi 1.01,2013-05-15 10:04:00,
2013-05-15 03:14:00,52.0,45.7,29.88,North,349,4.0,8.7,79,0.00,,,-99.99,FreeWX-Wi 1.01,2013-05-15 10:14:00,
2013-05-15 03:24:00,52.0,45.7,29.88,North,6,4.0,10.5,79,0.00,,,-99.99,FreeWX-Wi 1.01,2013-05-15 10:24:00,
2013-05-15 03:34:00,52.0,45.7,29.88,North,3,4.0,9.6,79,0.00,,,-99.99,FreeWX-Wi 1.01,2013-05-15 10:34:00,
2013-05-15 03:44:00,52.0,46.0,29.88,NNE,19,4.0,8.3,80,0.00,,,-99.99,FreeWX-Wi 1.01,2013-05-15 10:44:00,
2013-05-15 03:54:00,52.0,46.0,29.88,NNE,16,4.0,8.1,80,0.00,,,-99.99,FreeWX-Wi 1.01,2013-05-15 10:54:00,
2013-05-15 04:04:00,52.0,46.4,29.88,North,11,3.0,11.0,81,0.00,,,-99.99,FreeWX-Wi 1.01,2013-05-15 11:04:00,
2013-05-15 04:14:00,51.8,46.4,29.88,NNW,346,3.0,8.1,82,0.00,,,-99.99,FreeWX-Wi 1.01,2013-05-15 11:14:00,
2013-05-15 04:24:00,51.8,46.4,29.88,NNW,347,3.0,6.3,82,0.00,,,-99.99,FreeWX-Wi 1.01,2013-05-15 11:24:00,
2013-05-15 04:34:00,51.6,46.6,29.88,North,7,2.0,5.8,83,0.00,,,-99.99,FreeWX-Wi 1.01,2013-05-15 11:34:00,
2013-05-15 04:44:00,51.6,46.6,29.88,NNE,14,2.0,5.8,83,0.00,,,-99.99,FreeWX-Wi 1.01,2013-05-15 11:44:00,
2013-05-15 04:54:00,51.6,46.6,29.88,North,4,2.0,5.8,83,0.00,,,-99.99,FreeWX-Wi 1.01,2013-05-15 11:54:00,
2013-05-15 05:04:00,51.6,46.9,29.88,North,0,2.0,8.3,84,0.00,,,-99.99,FreeWX-Wi 1.01,2013-05-15 12:04:00,
2013-05-15 05:14:00,51.6,46.9,29.88,North,0,2.0,5.8,84,0.00,,,-99.99,FreeWX-Wi 1.01,2013-05-15 12:14:00,
2013-05-15 05:25:00,51.6,46.9,29.88,North,4,3.0,8.1,84,0.00,,,-99.99,FreeWX-Wi 1.01,2013-05-15 12:25:00,
2013-05-15 07:20:00,52.9,47.5,29.91,NW,310,4.0,8.7,82,0.00,,,-99.99,FreeWX-Wi 1.01,2013-05-15 14:20:00,
2013-05-15 07:30:00,53.1,47.3,29.91,NNW,329,4.0,11.0,81,0.00,,,-99.99,FreeWX-Wi 1.01,2013-05-15 14:30:00,
2013-05-15 07:40:00,53.6,47.7,29.91,NNW,343,4.0,8.1,80,0.00,,,-99.99,FreeWX-Wi 1.01,2013-05-15 14:40:00,
2013-05-15 07:50:00,54.0,47.3,29.91,ENE,59,3.0,8.3,78,0.00,,,-99.99,FreeWX-Wi 1.01,2013-05-15 14:50:00,
2013-05-15 08:00:00,54.3,46.9,29.91,East,90,3.0,7.6,76,0.00,,,-99.99,FreeWX-Wi 1.01,2013-05-15 15:00:00,
2013-05-15 08:10:00,54.7,46.9,29.91,ENE,65,3.0,11.0,75,0.00,,,-99.99,FreeWX-Wi 1.01,2013-05-15 15:10:00,
2013-05-15 08:20:00,55.6,46.4,29.91,North,5,3.0,7.6,71,0.00,,,-99.99,FreeWX-Wi 1.01,2013-05-15 15:20:00,
2013-05-15 08:31:00,56.3,46.6,29.91,NNW,328,3.0,7.2,70,0.00,,,-99.99,FreeWX-Wi 1.01,2013-05-15 15:31:00,
2013-05-15 08:41:00,57.6,46.8,29.91,WSW,239,3.0,5.8,67,0.00,,,-99.99,FreeWX-Wi 1.01,2013-05-15 15:41:00,
2013-05-15 08:51:00,57.6,45.5,29.94,South,183,3.0,5.8,64,0.00,,,-99.99,FreeWX-Wi 1.01,2013-05-15 15:51:00,
2013-05-15 09:01:00,56.3,46.2,29.94,WSW,247,3.0,8.3,69,0.00,,,-99.99,FreeWX-Wi 1.01,2013-05-15 16:01:00,
2013-05-15 09:11:00,56.1,46.8,29.94,NNW,331,4.0,11.9,71,0.00,,,-99.99,FreeWX-Wi 1.01,2013-05-15 16:11:00,
2013-05-15 09:21:00,56.7,46.6,29.94,NNW,332,4.0,11.0,69,0.00,,,-99.99,FreeWX-Wi 1.01,2013-05-15 16:21:00,
2013-05-15 09:31:00,57.2,46.8,29.94,NNW,346,4.0,10.1,68,0.00,,,-99.99,FreeWX-Wi 1.01,2013-05-15 16:31:00,
2013-05-15 09:41:00,57.4,46.9,29.94,North,355,5.0,11.0,68,0.00,,,-99.99,FreeWX-Wi 1.01,2013-05-15 16:41:00,
2013-05-15 09:51:00,57.7,46.4,29.94,North,355,5.0,11.0,66,0.00,,,-99.99,FreeWX-Wi 1.01,2013-05-15 16:51:00,
2013-05-15 10:01:00,58.1,46.4,29.94,North,353,5.0,10.1,65,0.00,,,-99.99,FreeWX-Wi 1.01,2013-05-15 17:01:00,
2013-05-15 10:12:00,58.5,45.9,29.94,NNW,347,5.0,12.3,63,0.00,,,-99.99,FreeWX-Wi 1.01,2013-05-15 17:12:00,
2013-05-15 10:22:00,58.6,46.0,29.94,North,353,5.0,12.8,63,0.00,,,-99.99,FreeWX-Wi 1.01,2013-05-15 17:22:00,
2013-05-15 10:32:00,58.8,45.9,29.94,NNW,347,6.0,12.8,62,0.00,,,-99.99,FreeWX-Wi 1.01,2013-05-15 17:32:00,
2013-05-15 10:42:00,59.0,45.5,29.94,NNW,341,6.0,15.0,61,0.00,,,-99.99,FreeWX-Wi 1.01,2013-05-15 17:42:00,
2013-05-15 10:52:00,59.4,45.5,29.94,NNW,338,6.0,11.0,60,0.00,,,-99.99,FreeWX-Wi 1.01,2013-05-15 17:52:00,
2013-05-15 11:02:00,59.9,45.1,29.94,NNW,338,6.0,11.9,58,0.00,,,-99.99,FreeWX-Wi 1.01,2013-05-15 18:02:00,
2013-05-15 11:12:00,59.7,45.3,29.94,NNW,340,6.0,12.8,59,0.00,,,-99.99,FreeWX-Wi 1.01,2013-05-15 18:12:00,
2013-05-15 11:22:00,61.0,44.8,29.91,NNW,343,6.0,13.2,55,0.00,,,-99.99,FreeWX-Wi 1.01,2013-05-15 18:22:00,
2013-05-15 11:32:00,61.5,44.2,29.94,NNW,339,6.0,12.3,53,0.00,,,-99.99,FreeWX-Wi 1.01,2013-05-15 18:32:00,
2013-05-15 11:42:00,62.4,45.1,29.94,North,350,5.0,9.6,53,0.00,,,-99.99,FreeWX-Wi 1.01,2013-05-15 18:42:00,
2013-05-15 11:52:00,63.7,44.2,29.94,North,1,5.0,8.7,49,0.00,,,-99.99,FreeWX-Wi 1.01,2013-05-15 18:52:00,
2013-05-15 12:02:00,64.0,42.8,29.91,North,5,4.0,11.9,46,0.00,,,-99.99,FreeWX-Wi 1.01,2013-05-15 19:02:00,
2013-05-15 12:12:00,63.5,42.3,29.91,North,356,5.0,12.3,46,0.00,,,-99.99,FreeWX-Wi 1.01,2013-05-15 19:12:00,
2013-05-15 12:22:00,63.0,43.0,29.94,NNW,344,5.0,10.5,48,0.00,,,-99.99,FreeWX-Wi 1.01,2013-05-15 19:22:00,
2013-05-15 12:43:00,63.0,41.9,29.94,North,351,5.0,10.5,46,0.00,,,-99.99,FreeWX-Wi 1.01,2013-05-15 19:43:00,
2013-05-15 12:53:00,62.1,41.5,29.94,North,354,6.0,17.4,47,0.00,,,-99.99,FreeWX-Wi 1.01,2013-05-15 19:53:00,
2013-05-15 13:03:00,61.9,41.4,29.91,North,350,6.0,15.4,47,0.00,,,-99.99,FreeWX-Wi 1.01,2013-05-15 20:03:00,
2013-05-15 13:13:00,62.1,42.1,29.91,NNW,343,7.0,11.4,48,0.00,,,-99.99,FreeWX-Wi 1.01,2013-05-15 20:13:00,
2013-05-15 13:23:00,61.9,42.4,29.94,NNW,340,7.0,12.8,49,0.00,,,-99.99,FreeWX-Wi 1.01,2013-05-15 20:23:00,
2013-05-15 13:33:00,61.7,42.8,29.94,NNW,342,6.0,9.2,50,0.00,,,-99.99,FreeWX-Wi 1.01,2013-05-15 20:33:00,
2013-05-15 13:43:00,62.4,43.0,29.94,North,351,6.0,12.8,49,0.00,,,-99.99,FreeWX-Wi 1.01,2013-05-15 20:43:00,
2013-05-15 13:53:00,63.1,43.2,29.94,North,3,5.0,14.1,48,0.00,,,-99.99,FreeWX-Wi 1.01,2013-05-15 20:53:00,
2013-05-15 14:03:00,62.8,42.8,29.94,North,9,5.0,11.4,48,0.00,,,-99.99,FreeWX-Wi 1.01,2013-05-15 21:03:00,
2013-05-15 14:13:00,62.6,43.2,29.94,North,3,5.0,12.8,49,0.00,,,-99.99,FreeWX-Wi 1.01,2013-05-15 21:13:00,
2013-05-15 14:23:00,61.9,43.0,29.94,NNW,347,6.0,12.8,50,0.00,,,-99.99,FreeWX-Wi 1.01,2013-05-15 21:23:00,
2013-05-15 14:33:00,61.9,44.1,29.94,NNW,347,5.0,10.5,52,0.00,,,-99.99,FreeWX-Wi 1.01,2013-05-15 21:33:00,
2013-05-15 14:43:00,62.4,43.5,29.94,NNW,344,5.0,11.4,50,0.00,,,-99.99,FreeWX-Wi 1.01,2013-05-15 21:43:00,
2013-05-15 14:53:00,61.9,43.5,29.94,NNW,342,6.0,14.1,51,0.00,,,-99.99,FreeWX-Wi 1.01,2013-05-15 21:53:00,
2013-05-15 15:03:00,62.6,43.2,29.94,NNW,342,6.0,12.8,49,0.00,,,-99.99,FreeWX-Wi 1.01,2013-05-15 22:03:00,
2013-05-15 15:13:00,63.1,43.2,29.94,NNW,348,6.0,10.5,48,0.00,,,-99.99,FreeWX-Wi 1.01,2013-05-15 22:13:00,
2013-05-15 15:23:00,63.7,43.0,29.94,NNW,344,6.0,10.1,47,0.00,,,-99.99,FreeWX-Wi 1.01,2013-05-15 22:23:00,
2013-05-15 15:33:00,63.1,43.2,29.91,NNW,346,6.0,11.0,48,0.00,,,-99.99,FreeWX-Wi 1.01,2013-05-15 22:33:00,
2013-05-15 15:54:00,63.0,44.6,29.91,NNW,334,6.0,13.2,51,0.00,,,-99.99,FreeWX-Wi 1.01,2013-05-15 22:54:00,
2013-05-15 16:04:00,63.1,44.8,29.91,NW,326,6.0,12.8,51,0.00,,,-99.99,FreeWX-Wi 1.01,2013-05-15 23:04:00,
2013-05-15 16:35:00,62.6,45.7,29.91,NNW,348,5.0,11.4,54,0.00,,,-99.99,FreeWX-Wi 1.01,2013-05-15 23:35:00,
2013-05-15 16:45:00,61.5,46.6,29.91,NNW,344,6.0,13.6,58,0.00,,,-99.99,FreeWX-Wi 1.01,2013-05-15 23:45:00,
2013-05-15 16:55:00,61.7,46.8,29.91,NNW,345,6.0,13.2,58,0.00,,,-99.99,FreeWX-Wi 1.01,2013-05-15 23:55:00,
2013-05-15 17:05:00,62.2,46.4,29.91,NNW,340,7.0,14.5,56,0.00,,,-99.99,FreeWX-Wi 1.01,2013-05-16 00:05:00,
2013-05-15 17:36:00,61.5,47.1,29.91,NNW,345,6.0,10.5,59,0.00,,,-99.99,FreeWX-Wi 1.01,2013-05-16 00:36:00,
2013-05-15 17:46:00,61.0,47.8,29.91,NNW,338,6.0,13.2,62,0.00,,,-99.99,FreeWX-Wi 1.01,2013-05-16 00:46:00,
2013-05-15 17:56:00,60.4,47.8,29.91,NNW,336,6.0,11.0,63,0.00,,,-99.99,FreeWX-Wi 1.01,2013-05-16 00:56:00,
2013-05-15 18:06:00,60.3,48.0,29.88,NNW,335,7.0,15.0,64,0.00,,,-99.99,FreeWX-Wi 1.01,2013-05-16 01:06:00,
2013-05-15 18:16:00,60.1,47.8,29.88,NNW,338,7.0,12.8,64,0.00,,,-99.99,FreeWX-Wi 1.01,2013-05-16 01:16:00,
2013-05-15 18:26:00,59.7,47.5,29.88,NNW,336,7.0,11.9,64,0.00,,,-99.99,FreeWX-Wi 1.01,2013-05-16 01:26:00,
2013-05-15 18:36:00,59.7,47.1,29.88,NNW,338,7.0,12.3,63,0.00,,,-99.99,FreeWX-Wi 1.01,2013-05-16 01:36:00,
2013-05-15 18:46:00,59.2,46.9,29.88,NNW,340,7.0,12.3,64,0.00,,,-99.99,FreeWX-Wi 1.01,2013-05-16 01:46:00,
2013-05-15 18:56:00,59.0,47.3,29.88,NNW,344,7.0,14.1,65,0.00,,,-99.99,FreeWX-Wi 1.01,2013-05-16 01:56:00,
2013-05-15 19:06:00,58.6,47.3,29.88,NNW,344,7.0,11.0,66,0.00,,,-99.99,FreeWX-Wi 1.01,2013-05-16 02:06:00,
2013-05-15 19:16:00,58.5,47.5,29.88,NNW,340,7.0,10.5,67,0.00,,,-99.99,FreeWX-Wi 1.01,2013-05-16 02:16:00,
2013-05-15 19:26:00,57.9,47.8,29.88,NNW,338,6.0,11.0,69,0.00,,,-99.99,FreeWX-Wi 1.01,2013-05-16 02:26:00,
2013-05-15 19:36:00,57.4,47.7,29.88,NNW,338,6.0,11.4,70,0.00,,,-99.99,FreeWX-Wi 1.01,2013-05-16 02:36:00,
2013-05-15 19:46:00,57.2,47.8,29.88,NNW,345,5.0,8.3,71,0.00,,,-99.99,FreeWX-Wi 1.01,2013-05-16 02:46:00,
2013-05-15 19:56:00,56.8,48.2,29.88,North,349,4.0,6.3,73,0.00,,,-99.99,FreeWX-Wi 1.01,2013-05-16 02:56:00,
2013-05-15 20:06:00,56.7,48.4,29.88,North,349,4.0,8.3,74,0.00,,,-99.99,FreeWX-Wi 1.01,2013-05-16 03:06:00,
2013-05-15 20:16:00,56.5,48.4,29.88,NNW,339,4.0,8.3,74,0.00,,,-99.99,FreeWX-Wi 1.01,2013-05-16 03:16:00,
2013-05-15 20:26:00,56.3,48.6,29.88,NNW,334,4.0,9.6,75,0.00,,,-99.99,FreeWX-Wi 1.01,2013-05-16 03:26:00,
2013-05-15 20:37:00,56.1,48.7,29.88,NNW,333,4.0,8.3,76,0.00,,,-99.99,FreeWX-Wi 1.01,2013-05-16 03:37:00,
2013-05-15 20:47:00,55.9,48.9,29.88,NNW,340,4.0,10.1,77,0.00,,,-99.99,FreeWX-Wi 1.01,2013-05-16 03:47:00,
2013-05-15 20:57:00,55.9,48.9,29.88,NNW,340,4.0,8.3,77,0.00,,,-99.99,FreeWX-Wi 1.01,2013-05-16 03:57:00,
2013-05-15 21:07:00,55.8,48.9,29.91,NNW,348,4.0,6.3,78,0.00,,,-99.99,FreeWX-Wi 1.01,2013-05-16 04:07:00,
2013-05-15 21:17:00,55.8,49.3,29.91,NNE,12,3.0,6.3,79,0.00,,,-99.99,FreeWX-Wi 1.01,2013-05-16 04:17:00,
2013-05-15 21:27:00,55.6,49.1,29.91,NNE,26,3.0,6.7,79,0.00,,,-99.99,FreeWX-Wi 1.01,2013-05-16 04:27:00,
2013-05-15 21:37:00,55.4,49.3,29.91,NNE,26,3.0,6.3,80,0.00,,,-99.99,FreeWX-Wi 1.01,2013-05-16 04:37:00,
2013-05-15 21:47:00,55.4,49.3,29.91,North,2,2.0,7.2,80,0.00,,,-99.99,FreeWX-Wi 1.01,2013-05-16 04:47:00,
2013-05-15 21:57:00,55.2,49.8,29.91,NNW,346,3.0,8.7,82,0.00,,,-99.99,FreeWX-Wi 1.01,2013-05-16 04:57:00,
2013-05-15 22:07:00,55.0,50.0,29.91,North,2,3.0,6.3,83,0.00,,,-99.99,FreeWX-Wi 1.01,2013-05-16 05:07:00,
2013-05-15 22:17:00,55.0,50.0,29.91,North,2,3.0,6.3,83,0.00,,,-99.99,FreeWX-Wi 1.01,2013-05-16 05:17:00,
2013-05-15 22:27:00,55.0,50.0,29.91,NNE,20,3.0,7.2,83,0.00,,,-99.99,FreeWX-Wi 1.01,2013-05-16 05:27:00,
2013-05-15 22:37:00,55.0,50.4,29.91,NNE,27,3.0,7.6,84,0.00,,,-99.99,FreeWX-Wi 1.01,2013-05-16 05:37:00,
2013-05-15 22:47:00,54.9,50.2,29.91,ENE,57,2.0,7.6,84,0.00,,,-99.99,FreeWX-Wi 1.01,2013-05-16 05:47:00,
2013-05-15 22:57:00,54.9,50.2,29.91,ENE,58,3.0,8.1,84,0.00,,,-99.99,FreeWX-Wi 1.01,2013-05-16 05:57:00,
2013-05-15 23:07:00,54.9,50.4,29.91,NE,51,3.0,6.3,85,0.00,,,-99.99,FreeWX-Wi 1.01,2013-05-16 06:07:00,
2013-05-15 23:17:00,54.9,50.4,29.91,NE,40,3.0,8.3,85,0.00,,,-99.99,FreeWX-Wi 1.01,2013-05-16 06:17:00,
2013-05-15 23:27:00,54.7,50.5,29.91,NNE,30,3.0,8.3,86,0.00,,,-99.99,FreeWX-Wi 1.01,2013-05-16 06:27:00,
2013-05-15 23:37:00,54.7,50.5,29.91,NE,37,2.0,7.2,86,0.00,,,-99.99,FreeWX-Wi 1.01,2013-05-16 06:37:00,
2013-05-15 23:47:00,54.9,50.7,29.91,NE,51,2.0,4.9,86,0.00,,,-99.99,FreeWX-Wi 1.01,2013-05-16 06:47:00,
2013-05-15 23:57:00,54.9,51.1,29.91,ENE,63,2.0,5.4,87,0.00,,,-99.99,FreeWX-Wi 1.01,2013-05-16 06:57:00,